Torna al catalogo

DELTA 1 DEB

AttivoLEO
NORAD 21500·DEBRIS·🇺🇸 United States

Lanciato Jun 12, 1975 da Vandenberg Space Force Base

Loading…

Prossimi Passaggi (prossime 24 ore)

TLE

AggiornatoSource: Space-Track

Epoca: Sep 14, 2026, 01:26 UTC

1 21500U 75052FV  26257.05991545  .00002046  00000-0  56318-3 0  9995
2 21500 100.0397 103.1413 0155471 183.4878 336.4613 14.41469832825806

Traccia DELTA 1 DEB in tempo reale con AllMySat

Download on the App Store